Location: Newark
(53.3503°N, 9.6158°W)
Time: 10:03:44
(UTC+00:00)

Envisat - Pass Details

Date: 26 October 2019
Orbit: 764 x 766 km, 98.1° (Epoch: 12 November)

Event Time Altitude Azimuth Distance (km) Brightness Sun altitude
Rises 18:48:23 0° 175° (S) 3,222 6.2 -13.9°
Reaches altitude 10° 18:50:43 10° 179° (S) 2,300 5.5 -14.2°
Maximum altitude 18:55:44 60° 259° (WSW) 881 3.6 -15.0°
Drops below altitude 10° 19:00:47 10° 339° (NNW) 2,316 5.7 -15.7°
Sets 19:03:08 0° 343° (NNW) 3,247 6.5 -16.1°
